DLH6CR EDDF-EDXW

Flight info

Callsign DLH6CR
Flight time 0h 51m
Altitude 36000
Route MARUN3W/25C MARUN Y150 TOLGI DCT ELSOB Y348 OMWEG DCT BADOS DCT OLDIP
Aircraft A319/M-SDE3FGHIRWY/LB1

Departure

Time 2026-05-06 14:49
Airport Frankfurt Main Airport (EDDF)

Arrival

Time 2026-05-06 15:40
Airport Westerland Sylt Airport (EDXW)
Time Latitude Longitude Altitude Speed Heading
2026-05-06 13:34 50.04977 8.59152 364 ft 0 kts 160°
2026-05-06 14:37 50.04997 8.59141 364 ft 4 kts 160°
2026-05-06 14:37 50.05017 8.59129 361 ft 4 kts 170°
2026-05-06 14:37 50.05039 8.59139 362 ft 4 kts 240°
2026-05-06 14:38 50.05047 8.59167 363 ft 1 kts 250°
2026-05-06 14:38 50.05047 8.59168 363 ft 1 kts 250°
2026-05-06 14:38 50.05047 8.59167 363 ft 0 kts 250°
2026-05-06 14:44 50.05045 8.59159 367 ft 3 kts 249°
2026-05-06 14:44 50.05026 8.59081 360 ft 10 kts 249°
2026-05-06 14:44 50.05003 8.58984 364 ft 10 kts 249°
2026-05-06 14:45 50.04942 8.58729 363 ft 12 kts 247°
2026-05-06 14:45 50.04878 8.58688 362 ft 8 kts 163°
2026-05-06 14:45 50.04847 8.58707 364 ft 0 kts 158°
2026-05-06 14:46 50.04841 8.58711 364 ft 4 kts 159°
2026-05-06 14:46 50.04779 8.58746 366 ft 14 kts 160°
2026-05-06 14:46 50.04693 8.58766 370 ft 11 kts 184°
2026-05-06 14:47 50.04626 8.58752 370 ft 9 kts 194°
2026-05-06 14:47 50.04560 8.58687 371 ft 14 kts 213°
2026-05-06 14:47 50.04488 8.58588 370 ft 14 kts 239°
2026-05-06 14:47 50.04466 8.58503 370 ft 0 kts 250°
2026-05-06 14:48 50.04465 8.58499 370 ft 2 kts 250°
2026-05-06 14:48 50.04389 8.58177 370 ft 70 kts 249°
2026-05-06 14:48 50.04142 8.57147 365 ft 130 kts 250°
2026-05-06 14:48 50.03777 8.55652 713 ft 150 kts 249°
2026-05-06 14:49 50.03417 8.54179 1505 ft 146 kts 251°
2026-05-06 14:49 50.03036 8.52624 1966 ft 164 kts 250°
2026-05-06 14:49 50.02568 8.50909 2412 ft 182 kts 243°
2026-05-06 14:49 50.01748 8.49289 2886 ft 199 kts 223°
2026-05-06 14:50 50.00521 8.48205 3617 ft 204 kts 199°
2026-05-06 14:50 49.99114 8.47804 4500 ft 206 kts 191°
2026-05-06 14:50 49.97698 8.47475 5309 ft 207 kts 191°
2026-05-06 14:50 49.96746 8.47260 5861 ft 208 kts 191°
2026-05-06 14:51 49.95325 8.46753 6532 ft 216 kts 198°
2026-05-06 14:51 49.93806 8.46050 6994 ft 239 kts 198°
2026-05-06 14:51 49.91791 8.44590 8155 ft 248 kts 222°
2026-05-06 14:51 49.91062 8.43181 8812 ft 251 kts 241°
2026-05-06 14:52 49.90621 8.40562 9831 ft 257 kts 269°
2026-05-06 14:52 49.91061 8.37851 10591 ft 267 kts 298°
2026-05-06 14:52 49.92383 8.35813 11485 ft 276 kts 328°
2026-05-06 14:52 49.94187 8.34560 12097 ft 294 kts 335°
2026-05-06 14:53 49.96153 8.33280 12390 ft 318 kts 335°
2026-05-06 14:53 49.98269 8.31911 12656 ft 341 kts 335°
2026-05-06 14:53 50.00509 8.30465 13249 ft 352 kts 335°
2026-05-06 14:53 50.02887 8.29413 13944 ft 361 kts 351°
2026-05-06 14:54 50.05378 8.29576 14616 ft 369 kts 11°
2026-05-06 14:54 50.07872 8.30639 15328 ft 373 kts 15°
2026-05-06 14:54 50.10373 8.31783 16028 ft 377 kts 15°
2026-05-06 14:54 50.12908 8.32961 16702 ft 382 kts 16°
2026-05-06 14:55 50.15466 8.34156 17367 ft 387 kts 16°
2026-05-06 14:55 50.18089 8.35381 17817 ft 397 kts 16°
2026-05-06 14:55 50.20758 8.36623 18383 ft 403 kts 16°
2026-05-06 14:55 50.23458 8.37877 18964 ft 407 kts 15°
2026-05-06 14:56 50.26182 8.39140 19572 ft 410 kts 15°
2026-05-06 14:56 50.28924 8.40416 20180 ft 413 kts 15°
2026-05-06 14:56 50.31678 8.41771 20773 ft 416 kts 17°
2026-05-06 14:56 50.34428 8.43233 21346 ft 420 kts 18°
2026-05-06 14:57 50.37197 8.44774 21916 ft 423 kts 18°
2026-05-06 14:57 50.39973 8.46345 22441 ft 427 kts 18°
2026-05-06 14:57 50.42675 8.48333 22960 ft 433 kts 31°
2026-05-06 14:57 50.45146 8.51079 23459 ft 437 kts 34°
2026-05-06 14:58 50.47614 8.53895 23886 ft 440 kts 35°
2026-05-06 14:58 50.50099 8.56749 24307 ft 443 kts 35°
2026-05-06 14:58 50.52593 8.59628 24712 ft 447 kts 35°
2026-05-06 14:58 50.55109 8.62542 25120 ft 450 kts 36°
2026-05-06 14:59 50.57636 8.65468 25535 ft 453 kts 36°
2026-05-06 14:59 50.60183 8.68414 25939 ft 456 kts 36°
2026-05-06 14:59 50.62753 8.71384 26341 ft 460 kts 36°
2026-05-06 14:59 50.65343 8.74382 26746 ft 463 kts 36°
2026-05-06 15:00 50.67942 8.77397 27148 ft 466 kts 36°
2026-05-06 15:00 50.70567 8.80444 27534 ft 470 kts 36°
2026-05-06 15:00 50.73204 8.83508 27904 ft 473 kts 36°
2026-05-06 15:00 50.75866 8.86607 28258 ft 476 kts 36°
2026-05-06 15:01 50.78539 8.89723 28615 ft 479 kts 36°
2026-05-06 15:01 50.81227 8.92862 28983 ft 482 kts 36°
2026-05-06 15:01 50.83932 8.96027 29340 ft 485 kts 37°
2026-05-06 15:01 50.86653 8.99216 29702 ft 487 kts 37°
2026-05-06 15:02 50.89385 9.02423 30019 ft 490 kts 37°
2026-05-06 15:02 50.92119 9.05640 30398 ft 490 kts 37°
2026-05-06 15:02 50.94853 9.08867 30814 ft 489 kts 37°
2026-05-06 15:02 50.97575 9.12085 31226 ft 488 kts 37°
2026-05-06 15:03 51.00297 9.15300 31637 ft 487 kts 37°
2026-05-06 15:03 51.03016 9.18514 32058 ft 487 kts 37°
2026-05-06 15:03 51.05726 9.21726 32486 ft 486 kts 37°
2026-05-06 15:03 51.08469 9.24863 32901 ft 485 kts 32°
2026-05-06 15:04 51.11420 9.27408 33299 ft 483 kts 22°
2026-05-06 15:04 51.14569 9.29254 33713 ft 481 kts 14°
2026-05-06 15:04 51.17822 9.30457 34076 ft 479 kts 10°
2026-05-06 15:04 51.21080 9.31572 34410 ft 479 kts 10°
2026-05-06 15:05 51.24305 9.32686 34734 ft 479 kts 10°
2026-05-06 15:05 51.27562 9.33823 35064 ft 479 kts 11°
2026-05-06 15:05 51.30816 9.34963 35375 ft 480 kts 11°
2026-05-06 15:05 51.34081 9.36105 35675 ft 480 kts 11°
2026-05-06 15:06 51.37349 9.37241 35793 ft 481 kts 11°
2026-05-06 15:06 51.43881 9.39517 35813 ft 480 kts 11°
2026-05-06 15:07 51.50418 9.41811 35812 ft 480 kts 11°
2026-05-06 15:07 51.56944 9.44097 35808 ft 480 kts 11°
2026-05-06 15:08 51.63477 9.46400 35807 ft 480 kts 11°
2026-05-06 15:08 51.70044 9.47724 35811 ft 474 kts 352°
2026-05-06 15:09 51.76540 9.46215 35813 ft 471 kts 348°
2026-05-06 15:09 51.83019 9.44564 35814 ft 471 kts 348°
2026-05-06 15:10 51.89495 9.42899 35818 ft 471 kts 348°
2026-05-06 15:10 51.95960 9.41234 35823 ft 471 kts 348°
2026-05-06 15:11 52.02430 9.39564 35830 ft 471 kts 348°
2026-05-06 15:11 52.08903 9.37885 35841 ft 471 kts 348°
2026-05-06 15:12 52.15358 9.36218 35839 ft 470 kts 348°
2026-05-06 15:12 52.21808 9.34537 35835 ft 468 kts 348°
2026-05-06 15:13 52.28237 9.32858 35828 ft 468 kts 348°
2026-05-06 15:13 52.34680 9.31180 35829 ft 468 kts 348°
2026-05-06 15:14 52.41110 9.29490 35832 ft 468 kts 348°
2026-05-06 15:14 52.47540 9.27788 35838 ft 468 kts 348°
2026-05-06 15:15 52.53968 9.26086 35838 ft 468 kts 348°
2026-05-06 15:15 52.60353 9.24397 35854 ft 468 kts 348°
2026-05-06 15:16 52.66784 9.22690 35854 ft 467 kts 348°
2026-05-06 15:16 52.73205 9.20971 35859 ft 467 kts 348°
2026-05-06 15:17 52.79613 9.19249 35876 ft 467 kts 348°
2026-05-06 15:17 52.86032 9.17532 35898 ft 467 kts 348°
2026-05-06 15:18 52.92449 9.15813 35903 ft 466 kts 348°
2026-05-06 15:18 52.98855 9.14091 35904 ft 466 kts 348°
2026-05-06 15:19 53.05243 9.12355 35906 ft 465 kts 348°
2026-05-06 15:19 53.11633 9.10624 35905 ft 465 kts 348°
2026-05-06 15:20 53.18029 9.08891 35905 ft 465 kts 348°
2026-05-06 15:20 53.24409 9.07144 35902 ft 465 kts 348°
2026-05-06 15:21 53.30801 9.05389 35434 ft 466 kts 348°
2026-05-06 15:21 53.33996 9.04509 34870 ft 464 kts 348°
2026-05-06 15:21 53.37176 9.03631 34329 ft 463 kts 349°
2026-05-06 15:21 53.40349 9.02753 33768 ft 462 kts 349°
2026-05-06 15:22 53.43516 9.01878 33131 ft 462 kts 349°
2026-05-06 15:22 53.46686 9.01002 32503 ft 462 kts 349°
2026-05-06 15:22 53.49862 9.00126 31896 ft 463 kts 349°
2026-05-06 15:22 53.53053 8.99247 31300 ft 464 kts 349°
2026-05-06 15:23 53.56200 8.98373 30718 ft 465 kts 349°
2026-05-06 15:23 53.59442 8.97470 30135 ft 467 kts 350°
2026-05-06 15:23 53.62646 8.96583 29459 ft 468 kts 350°
2026-05-06 15:23 53.65826 8.95713 28724 ft 470 kts 350°
2026-05-06 15:24 53.69049 8.94837 28008 ft 467 kts 350°
2026-05-06 15:24 53.72233 8.93973 27310 ft 460 kts 350°
2026-05-06 15:24 53.75370 8.93119 26630 ft 454 kts 349°
2026-05-06 15:24 53.78477 8.92266 25962 ft 449 kts 349°
2026-05-06 15:25 53.81543 8.91420 25313 ft 445 kts 349°
2026-05-06 15:25 53.84582 8.90583 24676 ft 440 kts 349°
2026-05-06 15:25 53.87593 8.89753 24056 ft 437 kts 349°
2026-05-06 15:25 53.90581 8.88930 23443 ft 433 kts 349°
2026-05-06 15:26 53.93543 8.88110 22727 ft 430 kts 349°
2026-05-06 15:26 53.96493 8.87296 22028 ft 428 kts 349°
2026-05-06 15:26 53.99420 8.86487 21396 ft 424 kts 349°
2026-05-06 15:26 54.02318 8.85680 20779 ft 421 kts 349°
2026-05-06 15:27 54.05202 8.84874 20174 ft 418 kts 349°
2026-05-06 15:27 54.08065 8.84071 19582 ft 416 kts 349°
2026-05-06 15:27 54.10918 8.83265 18997 ft 414 kts 349°
2026-05-06 15:27 54.13751 8.82465 18433 ft 412 kts 349°
2026-05-06 15:28 54.16580 8.81667 17818 ft 411 kts 349°
2026-05-06 15:28 54.19401 8.80876 17170 ft 410 kts 349°
2026-05-06 15:28 54.22188 8.80099 16523 ft 401 kts 349°
2026-05-06 15:28 54.24910 8.79341 15907 ft 391 kts 349°
2026-05-06 15:29 54.27557 8.78599 15305 ft 380 kts 348°
2026-05-06 15:29 54.30136 8.77871 14722 ft 370 kts 348°
2026-05-06 15:29 54.32637 8.77162 14260 ft 358 kts 348°
2026-05-06 15:29 54.35053 8.76501 13808 ft 347 kts 349°
2026-05-06 15:30 54.37406 8.75933 13310 ft 336 kts 350°
2026-05-06 15:30 54.39701 8.75421 12803 ft 327 kts 351°
2026-05-06 15:30 54.41930 8.74935 12299 ft 319 kts 351°
2026-05-06 15:30 54.44110 8.74454 11813 ft 312 kts 351°
2026-05-06 15:31 54.46238 8.73975 11326 ft 305 kts 351°
2026-05-06 15:31 54.48321 8.73498 10851 ft 299 kts 352°
2026-05-06 15:31 54.50372 8.73025 10388 ft 297 kts 352°
2026-05-06 15:32 54.54455 8.72072 9382 ft 291 kts 352°
2026-05-06 15:32 54.56444 8.71608 8816 ft 285 kts 353°
2026-05-06 15:32 54.58386 8.71157 8268 ft 279 kts 353°
2026-05-06 15:32 54.60292 8.70714 7699 ft 274 kts 353°
2026-05-06 15:33 54.62077 8.69831 7100 ft 273 kts 335°
2026-05-06 15:33 54.63139 8.68681 6703 ft 272 kts 326°
2026-05-06 15:33 54.64676 8.66798 6093 ft 269 kts 327°
2026-05-06 15:33 54.66681 8.64348 5264 ft 265 kts 327°
2026-05-06 15:34 54.67693 8.63113 4879 ft 262 kts 327°
2026-05-06 15:34 54.69159 8.61322 4402 ft 254 kts 328°
2026-05-06 15:34 54.70573 8.59592 4032 ft 245 kts 328°
2026-05-06 15:34 54.71957 8.57900 3692 ft 242 kts 328°
2026-05-06 15:35 54.73318 8.56233 3437 ft 237 kts 328°
2026-05-06 15:35 54.74651 8.54600 3176 ft 232 kts 328°
2026-05-06 15:35 54.75945 8.53011 3023 ft 223 kts 328°
2026-05-06 15:35 54.77176 8.51498 2994 ft 211 kts 328°
2026-05-06 15:36 54.78345 8.50061 2968 ft 203 kts 328°
2026-05-06 15:36 54.79496 8.48648 2735 ft 202 kts 328°
2026-05-06 15:36 54.80633 8.47250 2475 ft 199 kts 329°
2026-05-06 15:36 54.81744 8.45881 2212 ft 193 kts 328°
2026-05-06 15:37 54.82826 8.44548 1941 ft 187 kts 328°
2026-05-06 15:37 54.83846 8.43288 1694 ft 174 kts 329°
2026-05-06 15:37 54.84800 8.42112 1468 ft 162 kts 328°
2026-05-06 15:37 54.85686 8.41017 1242 ft 151 kts 328°
2026-05-06 15:38 54.86512 8.39997 1052 ft 142 kts 329°
2026-05-06 15:38 54.87295 8.39015 820 ft 136 kts 328°
2026-05-06 15:38 54.88038 8.38090 641 ft 128 kts 329°
2026-05-06 15:38 54.88756 8.37204 457 ft 125 kts 329°
2026-05-06 15:39 54.89465 8.36342 300 ft 123 kts 330°
2026-05-06 15:39 54.90147 8.35499 143 ft 120 kts 328°
2026-05-06 15:39 54.90793 8.34707 54 ft 102 kts 325°
2026-05-06 15:39 54.91241 8.34151 57 ft 63 kts 324°
2026-05-06 15:40 54.91551 8.33765 59 ft 47 kts 324°
2026-05-06 15:40 54.91714 8.33563 60 ft 23 kts 324°
2026-05-06 15:40 54.91838 8.33410 59 ft 17 kts 325°
2026-05-06 15:40 54.91892 8.33319 57 ft 10 kts 285°
2026-05-06 15:41 54.91851 8.33218 56 ft 11 kts 207°
2026-05-06 15:41 54.91772 8.33177 58 ft 12 kts 187°
2026-05-06 15:41 54.91682 8.33178 58 ft 13 kts 179°
2026-05-06 15:41 54.91587 8.33178 58 ft 14 kts 180°
2026-05-06 15:42 54.91503 8.33177 58 ft 10 kts 180°
2026-05-06 15:42 54.91438 8.33219 54 ft 11 kts 151°
2026-05-06 15:42 54.91366 8.33243 58 ft 9 kts 198°
2026-05-06 15:42 54.91352 8.33165 55 ft 4 kts 271°
2026-05-06 15:43 54.91352 8.33129 58 ft 2 kts 271°
2026-05-06 15:43 54.91352 8.33119 58 ft 0 kts 271°